Flag for Canada Weather past 2 weeks in London, Ontario, Canada

Now
50 °F

Partly sunny.


Feels Like: 45 °F
Forecast: N/A
Wind: 15 mph from North

Location: London Weather Station

Current Time: Apr 27, 2015 at 7:24:40 PM

Latest Report: Apr 27, 2015 at 6:00 PM


Visibility: 15 mi

Pressure: 29.99 "Hg

Humidity: 62%

Dew point: 37 °F

Location of LondonLocation

Historic Weather in London — Graph

°F

London temperature yesterday

Maximum temperature yesterday: 52 °F (at 2:00 PM)
Minimum temperature yesterday: 32 °F (at 4:00 AM)
Average temperature yesterday: 43 °F

Past Weeks' High & Low Weather Summary

 TemperatureHumidityPressure
High72 °F (Apr 13, 3:00 PM)100% (Apr 13, 5:00 PM)30.40 "Hg (Apr 13, 5:00 PM)
Low28 °F (Apr 23, 2:00 AM)21% (Apr 18, 5:00 PM)29.34 "Hg (Apr 20, 3:46 PM)
Average46 °F69%29.94 "Hg
* Reported Apr 12 6:00 PM — Apr 27 6:00 PM, London, Weather by CustomWeather, © 2015

Note: Actual official high and low records may vary slightly from our data, if they occured in-between our weather recording intervals... More about our weather records

Advertising

London weather history for previous 24 hours

 ConditionsComfort  
Time TempWeatherWind HumidityBarometerVisibility
6:00 PM
Mon, Apr 27
50 °FPartly sunny.15 mph62%29.99 "Hg15 mi
5:00 PM50 °FPartly sunny.14 mph67%29.98 "Hg15 mi
4:00 PM48 °FOvercast.13 mph71%29.97 "Hg15 mi
3:00 PM48 °FOvercast.13 mph66%29.96 "Hg15 mi
2:00 PM46 °FOvercast.14 mph71%29.96 "Hg15 mi
1:00 PM45 °FOvercast.12 mph76%29.95 "Hg15 mi
12:00 PM43 °FOvercast.13 mph76%29.95 "Hg15 mi
11:00 AM41 °FOvercast.13 mph81%29.94 "Hg15 mi
10:51 AM41 °FOvercast.12 mph81%29.93 "Hg15 mi
10:00 AM39 °FDrizzle. Overcast.15 mph87%29.92 "Hg12 mi
9:46 AM39 °FDrizzle. Overcast.14 mph87%29.92 "Hg15 mi
9:00 AM39 °FOvercast.15 mph87%29.90 "Hg15 mi
8:00 AM37 °FDrizzle. Low clouds.13 mph93%29.90 "Hg12 mi
7:55 AM37 °FDrizzle. Low clouds.12 mph93%29.89 "Hg12 mi
7:00 AM37 °FLight rain. Overcast.13 mph93%29.88 "Hg12 mi
6:00 AM37 °FSprinkles. Mostly cloudy.7 mph93%29.87 "Hg15 mi
5:00 AM37 °FSprinkles. Mostly cloudy.7 mph93%29.86 "Hg15 mi
4:00 AM37 °FOvercast.8 mph93%29.85 "Hg15 mi
3:00 AM37 °FOvercast.6 mph87%29.86 "Hg15 mi
2:00 AM37 °FPassing clouds.7 mph87%29.87 "Hg15 mi
1:00 AM39 °FPassing clouds.6 mph81%29.87 "Hg15 mi
12:00 AM41 °FPassing clouds.7 mph76%29.88 "Hg15 mi
11:00 PM
Sun, Apr 26
41 °FPassing clouds.8 mph76%29.88 "Hg15 mi
10:00 PM43 °FOvercast.13 mph71%29.89 "Hg15 mi
9:00 PM43 °FPartly sunny.8 mph71%29.89 "Hg15 mi
8:00 PM45 °FPassing clouds.13 mph66%29.88 "Hg15 mi
7:00 PM48 °FScattered clouds.13 mph58%29.88 "Hg15 mi
Weather by CustomWeather, © 2015

See weather overviewHow to use our weather pages